Find Starlink 38361

NORAD ID: 100537 Int'l Des: 2026-200 Owner: SPXS Country: US Constellation: starlink operational

Current View

Loading 3D Globe...

About Starlink 38361

Starlink 38361 (NORAD 100537) is a starlink constellation satellite launched Sep 2, 2026 by SPXS of US. with a mass of 575.00 kg.

Upcoming Passes

Passes for default location (London). Set your location on the main map for personalized predictions.

Altitude History

Loading altitude history...

Two-Line Element Set

1 A0537U 26200D 26262.95620271 .00161377 00000-0 94855-3 0 9994
2 A0537 69.9995 136.6820 0003674 274.0289 86.0490 15.77617816 2808
Epoch: Sep 19, 2026 • Age: 18 hours

Current Status

Altitude 348.6 km
Apogee / Perigee N/A
Velocity 7.70 km/s
Sub-Earth Point -37.07°S, 81.65°E
Launch Date Sep 2, 2026
Age 18 days
Type internet

Technical Details

Classification Payload
Mass 575.00 kg
Dry Mass 530.00 kg
Length 0.30 m
Span 29.00 m
Shape ? Box + pan
Manufacturer SPXS
Bus Type Starlink V2MO
Phase Status In Orbit
Owner/State SPXS/US

Most Searched